Location: Fort Worth, Tx
(32.7431°N, 97.3695°W)
Time: 14:52:27
(UTC-04:00)

Tiros 1 - Pass Details

Date: 24 February 2024
Orbit: 625 x 657 km, 48.4° (Epoch: 11 April)

Event Time Altitude Azimuth Distance (km) Brightness Sun altitude
Exits shadow 05:48:08 23° 148° (SSE) 1,356 9.0 -29.2°
Drops below altitude 10° 05:49:56 10° 143° (SE) 2,018 10.0 -28.8°
Sets 05:52:16 0° 140° (SE) 2,918 10.9 -28.3°
